Location: Unspecified
(22.6800°N, 112.2000°E)
Time: 11:59:06
(UTC+08:00)

S-56A Canister/Altair - Pass Details

Date: 26 July 2021
Orbit: 632 x 2500 km, 38.9° (Epoch: 21 September)

Event Time Altitude Azimuth Distance (km) Brightness Sun altitude
Rises 18:29:07 0° 274° (W) 6,049 14.0 9.2°
Reaches altitude 10° 18:33:24 10° 281° (W) 5,128 14.5 8.3°
Maximum altitude 18:47:26 42° 348° (NNW) 3,124 11.0 5.2°
Drops below altitude 10° 18:59:39 10° 56° (NE) 4,488 11.1 2.6°
Sets 19:03:08 0° 63° (ENE) 5,256 11.4 1.8°
